Regional Weather Roundup
Issued by NWS

Home | Current Version | Previous Version | Text Only | Print | Product List | Glossary Off
Versions: 1 2 3 4 5 6 7 8 9 10 11 12 13 14 15 16 17 18 19 20 21 22 23 24 25 26 27 28 29 30 31 32 33 34 35 36 37 38 39 40 41 42 43 44 45 46 47 48 49 50

426
ASUS43 KMKX 271000
RWRWI

WISCONSIN REGIONAL WEATHER ROUNDUP
NATIONAL WEATHER SERVICE MILWAUKEE/SULLIVAN WI
500 AM CDT FRI MAY 27 2016

NOTE: "FAIR" INDICATES FEW OR NO CLOUDS BELOW 12,000 FEET WITH NO
SIGNIFICANT WEATHER AND/OR OBSTRUCTIONS TO VISIBILITY.

WIZ001-002-006>008-014>016-023>028-271100-
NORTHWEST WISCONSIN

CITY           SKY/WX    TMP DP  RH WIND       PRES   REMARKS
SUPERIOR ARPT  FOG       46  46 100 CALM      29.85F VSB 1/4
ASHLAND        CLOUDY    45  44  97 CALM      29.85S
HAYWARD        PTCLDY    49  47  93 N3        29.87S
SIREN          CLOUDY    58  55  87 CALM      29.83F
CUMBERLAND     CLOUDY    55  54  94 CALM      29.86S
RICE LAKE      CLOUDY    58  55  92 CALM      29.88S
CHETEK         CLOUDY    56  56  99 CALM      29.86S
LADYSMITH      CLOUDY    53  52  96 NE3       29.88F
EAU CLAIRE     NOT AVBL
MENOMONIE      CLOUDY    61  56  84 CALM      29.84F
NEW RICHMOND   CLOUDY    62  55  76 SE5       29.83F
OSCEOLA        CLOUDY    62  56  80 E5        29.84F
$$

WIZ003>005-009-010-017-018-271100-
NORTH CENTRAL WISCONSIN

CITY           SKY/WX    TMP DP  RH WIND       PRES   REMARKS
MANITOWISH WTR NOT AVBL
ARBOR VITAE    PTCLDY    52  51  96 CALM      29.89S FOG
WOODRUFF       PTCLDY    52  51  96 CALM      29.89S FOG
RHINELANDER    FOG       51  50  96 CALM      29.90S VSB 1/4
EAGLE RIVER    FOG       51  51 100 CALM      29.90R VSB 1/2
LAND O LAKES     N/A     50  50 100 CALM      29.91R FOG
PHILLIPS       CLOUDY    52  52 100 CALM      29.88S
TOMAHAWK       PTCLDY    49  48  97 CALM      29.89F FOG
MEDFORD        CLEAR     54  54 100 E3        29.88S
MERRILL        FOG       50  50 100 CALM      29.90S VSB 1/2
$$

WIZ029-030-035-036-043>047-271100-
CENTRAL WISCONSIN

CITY           SKY/WX    TMP DP  RH WIND       PRES   REMARKS
WAUSAU         CLOUDY    57  55  93 CALM      29.88R FOG
MOSINEE        CLOUDY    54  54 100 CALM      29.89F
MARSHFIELD     CLOUDY    58  55  90 NE5       29.87S
STEVENS POINT  CLEAR     53  52  99 CALM      29.89S
WAUPACA        FOG       59  58  99 CALM      29.88F VSB 1
WAUTOMA        CLOUDY    56  56 100 CALM      29.89R
WISC RAPIDS    CLOUDY    57  55  93 NE3       29.88F
CAMP DOUGLAS   CLOUDY    57 N/A N/A E2        29.85F
$$

WIZ011>013-019>022-031-037>040-048>050-271100-
NORTHEAST WISCONSIN

CITY           SKY/WX    TMP DP  RH WIND       PRES   REMARKS
ANTIGO         CLOUDY    52  52 100 CALM      29.90F
SHAWANO        PTCLDY    58  57  95 CALM      29.88F FOG
OCONTO         PTCLDY   N/A N/A N/A CALM      29.87F
STURGEON BAY   NOT AVBL
GREEN BAY      CLEAR     58  56  93 CALM      29.88S FOG
MANITOWOC      NOT AVBL
APPLETON       CLEAR     61  54  77 CALM      29.87S
CLINTONVILLE   CLOUDY    55  55 100 CALM      29.88S FOG
OSHKOSH        PTCLDY    59  56  89 CALM      29.87F
$$

WIZ032>034-041-042-053>061-271100-
SOUTHWEST WISCONSIN

CITY           SKY/WX    TMP DP  RH WIND       PRES   REMARKS
LA CROSSE      CLOUDY    65  60  84 E3        29.83R
SPARTA         CLOUDY    59  58  98 CALM      29.86F
VIROQUA        CLOUDY    62  61  94 E5        29.86F
BOSCOBEL       CLOUDY    65  63  93 NE3       29.83F
PRAIRIE DU CHI RAIN      65  63  93 CALM      29.85S
PLATTEVILLE    CLOUDY    65  63  92 S22G39    29.91R
$$

WIZ056-057-062-063-064-067-068-271100-
SOUTH CENTRAL WISCONSIN

CITY           SKY/WX    TMP DP  RH WIND       PRES   REMARKS
REEDSBURG      CLOUDY    59  59 100 CALM      29.87F
BARABOO/DELLS  CLOUDY    61  58  91 CALM      29.87F
LONE ROCK      NOT AVBL
MINERAL POINT  CLOUDY    70  55  60 NE7       29.84F
MADISON        CLOUDY    60  57  89 CALM      29.85F
MIDDLETON      CLOUDY    61  57  88 CALM      29.87F
WATERTOWN      CLOUDY    61  61 100 CALM      29.87F
MONROE         CLOUDY    68  59  73 S14G20    29.88R
JANESVILLE     CLOUDY    64  63  94 S3        29.88S
$$

WIZ051-052-058>065-066-070>072-271100-
SOUTHEAST WISCONSIN

CITY           SKY/WX    TMP DP  RH WIND       PRES   REMARKS
MILWAUKEE      MOCLDY    69  64  84 SW6       29.87F
WAUKESHA       CLOUDY    61  59  94 SE5       29.90S
MILWAUKEE/TIMM CLOUDY    63  55  77 CALM      29.89S
RACINE         CLOUDY    67  63  87 CALM      29.89F
BURLINGTON     CLOUDY    60  60  97 CALM      29.88F
KENOSHA        CLOUDY    66  64  93 SW3       29.88F
FOND DU LAC    CLOUDY    58  56  93 CALM      29.88S
SHEBOYGAN      CLEAR     57  55  93 CALM      29.88S
WEST BEND      MOCLDY    59  59 100 CALM      29.89S
JUNEAU         PTCLDY    62  60  94 CALM      29.89F
$$

LSZ147-162-271100-
LAKE SUPERIOR

STATION/POSITION TIME  TEMP    WIND        PRES    WAVE
                       AIR SEA DIR/SP/G            HT/PER
                 (UTC) (F)     (DEG/KT/KT) (MB)    (FT/S)
W MID LAKE BUOY  0850   40 38  340/  4/  4 1011.8F   1
DEVILS ISLAND    0900   43     270/  1/  2 1011.4F
SAXON HARBOR     0940   46     170/  1/  3 1010.2F
$$

LMZ867-665-643>646-271100-
LAKE MICHIGAN

STATION/POSITION TIME  TEMP    WIND        PRES    WAVE
                       AIR SEA DIR/SP/G            HT/PER
                 (UTC) (F)     (DEG/KT/KT) (MB)    (FT/S)
CHAMBERS ISLAND  0900   55      CALM  /  2 1012.2R
N MID LAKE BUOY  0850   47 45  160/  6/  8 1012.4R   1/ 5
NORTHPORT PIER   0900   51     140/  3/  4 1012.2R
SISTER BAY       0919   56        CALM       N/A
ALGOMA LAKESHORE 0917             CALM       N/A
KEWAUNEE LAKESHO 0900           40/  1/  2 1011.4R
SHEBOYGAN LAKESH 0900   61      CALM  /  1 1011.9F
PORT WASHINGTON  0900   58     280/  3/  4 1012.9R
S MID LAKE BUOY  0850   55 50  170/ 10/ 12 1011.7F   1
KENOSHA   LAKESH 0900   69     230/  4/  6 1011.9R
$$

TC  - TEMPERATURE IN CELSIUS
VSB - VISIBILITY IN STATUTE MILES
WCI - WIND CHILL INDEX
HX  - HEAT INDEX





USA.gov is the U.S. government's official web portal to all federal, state and local government web resources and services.